Flag for U.S.A. Weather past 2 weeks in Lakewood, New Jersey, U.S.A.

Now
68 °F

Clear.


Feels Like: 68 °F
Forecast: 69 / 89 °F
Wind: 6 mph from West

Location: Lakehurst Naval Air Station

Current Time: Aug 1, 2015 at 6:03:05 AM

Latest Report: Aug 1, 2015 at 5:00 AM


Visibility: 10 mi

Pressure: 29.80 "Hg

Humidity: 87%

Dew point: 64 °F

Location of LakewoodLocation

Historic Weather in Lakewood — Graph

°F

Lakewood temperature yesterday

Maximum temperature yesterday: 89 °F (at 4:00 PM)
Minimum temperature yesterday: 68 °F (at 6:00 AM)
Average temperature yesterday: 78 °F

Past Weeks' High & Low Weather Summary

 TemperatureHumidityPressure
High95 °F (Jul 19, 4:00 PM)100% (Jul 19, 4:00 AM)30.11 "Hg (Jul 19, 4:00 AM)
Low54 °F (Jul 17, 5:00 AM)26% (Jul 24, 2:00 PM)29.58 "Hg (Jul 21, 6:00 PM)
Average77 °F70%29.89 "Hg
* Reported Jul 17 5:00 AM — Aug 1 5:00 AM, Lakewood, Weather by CustomWeather, © 2015

Note: Actual official high and low records may vary slightly from our data, if they occured in-between our weather recording intervals... More about our weather records

Advertising

Lakewood weather history for previous 24 hours

 ConditionsComfort  
Time TempWeatherWind HumidityBarometerVisibility
5:00 AM
Sat, Aug 1
68 °FClear.6 mph87%29.80 "Hg10 mi
4:00 AM67 °FClear.6 mph85%29.81 "Hg10 mi
3:00 AM67 °FClear.5 mph81%29.82 "Hg10 mi
2:00 AM68 °FClear.3 mph78%29.83 "Hg10 mi
1:00 AM66 °FClear.No wind84%29.84 "Hg10 mi
12:00 AM67 °FClear.No wind85%29.85 "Hg10 mi
11:00 PM
Fri, Jul 31
69 °FClear.No wind84%29.85 "Hg10 mi
10:00 PM70 °FClear.No wind87%29.84 "Hg10 mi
9:00 PM72 °FSunny.No wind81%29.82 "Hg10 mi
8:00 PM78 °FSunny.No wind60%29.80 "Hg10 mi
7:00 PM86 °FSunny.5 mph40%29.80 "Hg10 mi
6:00 PM88 °FSunny.6 mph34%29.80 "Hg10 mi
5:00 PM89 °FSunny.8 mph31%29.81 "Hg10 mi
4:00 PM89 °FSunny.9 mph31%29.82 "Hg10 mi
3:00 PM88 °FPartly sunny.5 mph36%29.84 "Hg10 mi
2:00 PM88 °FPassing clouds.13 mph34%29.86 "Hg10 mi
1:00 PM86 °FSunny.10 mph37%29.87 "Hg10 mi
12:00 PM84 °FSunny.7 mph46%29.88 "Hg10 mi
11:00 AM83 °FSunny.7 mph53%29.89 "Hg10 mi
10:00 AM80 °FSunny.5 mph62%29.89 "Hg10 mi
9:00 AM76 °FSunny.7 mph72%29.88 "Hg10 mi
8:00 AM73 °FSunny.5 mph84%29.89 "Hg10 mi
7:00 AM69 °FFog.No wind96%29.88 "Hg6 mi
6:00 AM68 °FFog.No wind96%29.86 "Hg4 mi
Weather by CustomWeather, © 2015

See weather overviewHow to use our weather pages